THORAD DELTA 1 DEB, 8152

Orbit data source: Space-Track

THORAD DELTA 1 DEB, 8152 is space debris in SSO originally from a launch on Fri, 15 Nov 1974 UTC launched from the Air Force Western Test Range (AFWTR). Debris objects in space refer to the collection of defunct objects orbiting the Earth. Examples of debris include non-operational satellites, rocket bodies, and fragments generated from explosions, collisions, or faulty payload assembly.

Loading next visibility...
Identifier
8152, 1974-089S
Orbit
SSO
Country
Flag of USUS
Related business
Manufacturer
Unknown
Mission
Spacecraft
Bus & Motor
Unknown
Mass
Unknown
Launch date (UTC)
1974-11-15 (52 years ago)
Launch vehicle
Unknown
Launch site
Air Force Western Test Range (AFWTR)
Object type
Payload
Rocket body
Debris
Shape & HBR
Unknown shape, 0.1 m
Radar Cross Section
Medium (>0.1 m² and <1 m²)

Expand to show TLE details & history
Last TLE update: 1 day ago

TLE from 1 day ago
0 THORAD DELTA 1 DEB
1 08152U 74089S   26206.98537362  .00000066  00000-0  64515-3 0  9999
2 08152 101.8499 216.0576 0058427 277.6182 109.5800 12.60150158375575
Epoch: 2026-07-25T23:38Z
TLE epoch observation values (Epoch: 2026-07-25T23:38:56.280Z)
Latitude
27.223°
Longitude
-88.53263°
Altitude
1,440.877 km
Speed
7.136 km/s
True Right ascension
13h 59m 34s
True Declination
27° 05' 44"
Sunlit
Object was in daylight at epoch
Visualization orbit readout
Latitude
Unknown
Longitude
Unknown
Altitude
Unknown
Speed
Unknown
Apparent Right ascension
Unknown
Apparent Declination
Unknown
Sunlit
N/A
Visualization observer readout
Local Sidereal Time
16:14:31
Azimuth
Unknown
Elevation
Unknown
Doppler factor
Unknown
Orbital elements
Apogee altitude
1,465.425 km
Perigee altitude
1,374.303 km
Semi-major axis
7,798.001 km
Eccentricity
0.00584
Inclination
101.8499°
RAAN
216.0576°
Arg. of periapsis
277.6182°
True anomaly
110.20926°
Mean anomaly
109.58°
Eccentric anomaly
109.89478°
Mean motion
3.15187 °/min
Orbital period
114.22 mins
BSTAR
0.00064515
Loading maneuver chart data...
Computing Atmospheric mass density...

Documentation

Showing up to 5 results
|